Weather History for Chipley, FL

Change the Weather History Date:

Sunday, February 24, 2013

  Actual Average (KMAI) Record (KMAI)
Temperature  
Mean Temperature 56 °F 56 °F  
Max Temperature 60 °F 68 °F 79 °F (2001)
Min Temperature 51 °F 45 °F 32 °F (2002)
Degree Days  
Heating Degree Days 10    
Month to date heating degree days  
Since 1 July heating degree days  
Cooling Degree Days 0    
Month to date cooling degree days  
Year to date cooling degree days  
Growing Degree Days 6 (Base 50)    
Moisture  
Dew Point 52 °F    
Average Humidity 82    
Maximum Humidity 94    
Minimum Humidity 77    
Precipitation  
Precipitation 1.29 in 0.20 in 0.47 in (2012)
Month to date precipitation 4.19  
Year to date precipitation 9.23  
Sea Level Pressure  
Sea Level Pressure 29.91 in    
Wind  
Wind Speed 6 mph (NE)    
Max Wind Speed 15 mph    
Max Gust Speed 22 mph    
Visibility 9 miles    
Events      
T = Trace of Precipitation, MM = Missing Value Source: NWS Daily Summary

Daily Weather History Graph

Daily Weather History Graph

Search for Another Location

Airport:

Trip Planner

Search our weather history database for the weather conditions in past years. The results will help you decide how hot, cold, wet, or windy it might be!

Date:

Astronomy

Feb. 24, 2013 Rise Set
Actual Time 6:13 AM CST 5:37 PM CST
Civil Twilight 5:49 AM CST 6:01 PM CST
Nautical Twilight 5:21 AM CST 6:29 PM CST
Astronomical Twilight 4:53 AM CST 6:57 PM CST
Moon 4:47 PM CST (2/24) 5:09 AM CST (2/24)
Length of Visible Light 12h 12m
Length of Day
11h 23m
Waxing Gibbous, 99% of the Moon is Illuminated
Feb 24
Waxing Gibbous
Feb 25
Full
Mar 4
Last Quarter
Mar 11
New
Mar 19
First Quarter

Hourly Weather History & Observations

Time (CST) Temp. Dew Point Humidity Pressure Visibility Wind Dir Wind Speed Gust Speed Precip Events Conditions
12:15 AM 57.2 °F 50.0 °F 77% 29.95 in 10.0 mi NNE 5.8 mph - N/A   Clear
12:35 AM 57.2 °F 50.0 °F 77% 29.95 in 10.0 mi NNE 3.5 mph - N/A   Clear
12:55 AM 57.2 °F 50.0 °F 77% 29.96 in 10.0 mi NNE 5.8 mph - N/A   Clear
1:15 AM 57.2 °F 50.0 °F 77% 29.95 in 10.0 mi NNE 4.6 mph - N/A   Clear
1:35 AM 55.4 °F 50.0 °F 82% 29.96 in 10.0 mi NNE 3.5 mph - N/A   Clear
1:55 AM 55.4 °F 50.0 °F 82% 29.96 in 10.0 mi NNE 3.5 mph - N/A   Clear
2:15 AM 55.4 °F 50.0 °F 82% 29.95 in 10.0 mi NNE 5.8 mph - N/A   Clear
2:35 AM 55.4 °F 48.2 °F 77% 29.95 in 10.0 mi NNE 8.1 mph - N/A   Clear
2:55 AM 55.4 °F 48.2 °F 77% 29.96 in 10.0 mi NNE 4.6 mph - N/A   Clear
3:15 AM 55.4 °F 48.2 °F 77% 29.95 in 10.0 mi NE 5.8 mph - N/A   Clear
3:35 AM 53.6 °F 46.4 °F 77% 29.94 in 10.0 mi NNE 6.9 mph - N/A   Clear
3:55 AM 53.6 °F 46.4 °F 77% 29.93 in 10.0 mi NNE 3.5 mph - N/A   Clear
4:15 AM 53.6 °F 46.4 °F 77% 29.93 in 10.0 mi NNE 4.6 mph - N/A   Clear
4:35 AM 53.6 °F 46.4 °F 77% 29.94 in 10.0 mi NNE 5.8 mph - N/A   Clear
4:55 AM 53.6 °F 46.4 °F 77% 29.95 in 10.0 mi NNE 3.5 mph - N/A   Clear
5:15 AM 53.6 °F 46.4 °F 77% 29.94 in 10.0 mi North 4.6 mph - N/A   Clear
5:35 AM 51.8 °F 46.4 °F 82% 29.94 in 10.0 mi NE 4.6 mph - N/A   Clear
5:55 AM 51.8 °F 46.4 °F 82% 29.95 in 10.0 mi NNE 4.6 mph - N/A   Clear
6:15 AM 51.8 °F 46.4 °F 82% 29.95 in 10.0 mi NNE 5.8 mph - N/A   Clear
6:35 AM 51.8 °F 46.4 °F 82% 29.95 in 10.0 mi NNE 5.8 mph - N/A   Clear
7:15 AM 51.8 °F 46.4 °F 82% 29.96 in 10.0 mi NNE 6.9 mph - N/A   Clear
7:35 AM 51.8 °F 46.4 °F 82% 29.96 in 10.0 mi NE 4.6 mph - N/A   Clear
7:55 AM 51.8 °F 46.4 °F 82% 29.96 in 10.0 mi ENE 8.1 mph - N/A   Clear
8:15 AM 53.6 °F 48.2 °F 82% 29.96 in 10.0 mi ENE 3.5 mph - N/A   Clear
8:35 AM 53.6 °F 48.2 °F 82% 29.97 in 10.0 mi East 4.6 mph - N/A   Clear
8:55 AM 55.4 °F 50.0 °F 82% 29.98 in 10.0 mi East 3.5 mph - N/A   Clear
9:15 AM 57.2 °F 50.0 °F 77% 29.98 in 10.0 mi East 9.2 mph - N/A   Mostly Cloudy
9:35 AM 55.4 °F 51.8 °F 88% 29.98 in 10.0 mi NE 5.8 mph - N/A   Overcast
9:55 AM 57.2 °F 51.8 °F 82% 29.98 in 10.0 mi Calm Calm - N/A   Overcast
10:15 AM 57.2 °F 51.8 °F 82% 29.98 in 10.0 mi NE 5.8 mph - N/A   Overcast
10:35 AM 57.2 °F 51.8 °F 82% 29.98 in 10.0 mi NE 9.2 mph - N/A   Overcast
10:55 AM 57.2 °F 51.8 °F 82% 29.98 in 9.0 mi NE 8.1 mph - N/A   Overcast
11:15 AM 59.0 °F 51.8 °F 77% 29.98 in 10.0 mi NE 9.2 mph - N/A   Overcast
11:35 AM 59.0 °F 51.8 °F 77% 29.98 in 10.0 mi NE 6.9 mph - N/A   Overcast
11:55 AM 59.0 °F 51.8 °F 77% 29.97 in 10.0 mi ENE 4.6 mph - N/A   Overcast
12:15 PM 59.0 °F 53.6 °F 82% 29.96 in 10.0 mi NE 8.1 mph - N/A   Overcast
12:35 PM 59.0 °F 53.6 °F 82% 29.95 in 10.0 mi Calm Calm - N/A   Overcast
12:55 PM 59.0 °F 53.6 °F 82% 29.94 in 8.0 mi East 3.5 mph - N/A   Overcast
1:15 PM 59.0 °F 53.6 °F 82% 29.93 in 7.0 mi East 4.6 mph - N/A   Overcast
1:35 PM 59.0 °F 53.6 °F 82% 29.92 in 7.0 mi NE 5.8 mph - N/A   Overcast
1:55 PM 59.0 °F 53.6 °F 82% 29.92 in 7.0 mi ENE 3.5 mph - N/A   Overcast
2:15 PM 59.0 °F 53.6 °F 82% 29.91 in 7.0 mi ENE 5.8 mph - N/A   Overcast
2:35 PM 59.0 °F 53.6 °F 82% 29.91 in 6.0 mi NE 6.9 mph - N/A   Overcast
2:55 PM 59.0 °F 53.6 °F 82% 29.90 in 6.0 mi ENE 3.5 mph - N/A   Overcast
3:15 PM 59.0 °F 53.6 °F 82% 29.89 in 7.0 mi East 6.9 mph - N/A   Overcast
3:35 PM 59.0 °F 53.6 °F 82% 29.89 in 7.0 mi East 8.1 mph - N/A   Overcast
3:55 PM 59.0 °F 53.6 °F 82% 29.87 in 7.0 mi ENE 4.6 mph - N/A   Overcast
4:15 PM 59.0 °F 53.6 °F 82% 29.87 in 8.0 mi East 9.2 mph - N/A   Overcast
4:35 PM 59.0 °F 53.6 °F 82% 29.87 in 9.0 mi ENE 4.6 mph - N/A   Overcast
4:55 PM 59.0 °F 53.6 °F 82% 29.86 in 10.0 mi NE 6.9 mph - N/A   Unknown
5:15 PM 59.0 °F 53.6 °F 82% 29.87 in 9.0 mi East 9.2 mph - N/A   Overcast
5:35 PM 59.0 °F 53.6 °F 82% 29.86 in 10.0 mi ENE 6.9 mph - N/A   Overcast
5:55 PM 59.0 °F 53.6 °F 82% 29.87 in 10.0 mi NE 6.9 mph - N/A   Overcast
6:15 PM 59.0 °F 55.4 °F 88% 29.85 in 10.0 mi ENE 6.9 mph - N/A   Overcast
6:35 PM 59.0 °F 55.4 °F 88% 29.82 in 10.0 mi East 8.1 mph - N/A   Overcast
6:55 PM 59.0 °F 55.4 °F 88% 29.84 in 8.0 mi Calm Calm - N/A   Overcast
7:15 PM 60.8 °F 57.2 °F 88% 29.84 in 6.0 mi East 15.0 mph - 0.05 in   Overcast
7:35 PM 60.8 °F 57.2 °F 88% 29.85 in 8.0 mi NE 4.6 mph - 0.07 in   Overcast
7:55 PM 60.8 °F 57.2 °F 88% 29.83 in 9.0 mi NE 8.1 mph 16.1 mph 0.08 in   Overcast
8:15 PM 60.8 °F 57.2 °F 88% 29.84 in 6.0 mi NNE 5.8 mph - 0.05 in   Overcast
8:35 PM 59.0 °F 57.2 °F 94% 29.82 in 5.0 mi NE 9.2 mph 21.9 mph 0.29 in   Overcast
8:55 PM 60.8 °F 57.2 °F 88% 29.80 in 10.0 mi NE 8.1 mph 17.3 mph 0.31 in   Overcast
9:15 PM 60.8 °F 57.2 °F 88% 29.87 in 2.5 mi West 3.5 mph - 0.37 in   Overcast
9:35 PM 60.8 °F 57.2 °F 88% 29.83 in 5.0 mi NE 6.9 mph - 0.89 in   Overcast
9:55 PM 60.8 °F 57.2 °F 88% 29.81 in 10.0 mi ENE 9.2 mph - 0.89 in   Overcast
10:15 PM 60.8 °F 57.2 °F 88% 29.81 in 10.0 mi NE 9.2 mph - N/A   Overcast
10:35 PM 60.8 °F 57.2 °F 88% 29.80 in 8.0 mi NE 8.1 mph - N/A   Overcast
10:55 PM 60.8 °F 57.2 °F 88% 29.80 in 8.0 mi ENE 5.8 mph - N/A   Overcast
11:15 PM 60.8 °F 57.2 °F 88% 29.78 in 8.0 mi ENE 8.1 mph 16.1 mph N/A   Overcast
11:35 PM 60.8 °F 57.2 °F 88% 29.77 in 10.0 mi ENE 4.6 mph - 0.01 in   Overcast
11:55 PM 60.8 °F 57.2 °F 88% 29.75 in 10.0 mi East 5.8 mph - 0.01 in   Overcast